SCP
1 1 1 1 0 0 0 0 0 0 0 0 0 0 0 0 0 0 0 0 1 1 1 1 1 1 0 0 0 0 0 0 0 0 1 1 0 0 0 0 0 1 0 0 0 0 0 0 0
1 1 1 1 0 0 0 0 0 0 0 0 0 0 0 0 0 0 0 1 1 1 1 1 1 0 0 0 0 0 0 0 0 0 0 1 0 0 0 0 0 0 0 0 0 0 0 0 0
1 1 1 1 0 0 0 0 0 0 0 0 0 0 0 0 0 0 0 1 1 1 1 1 1 0 0 0 0 0 0 0 0 0 0 0 0 0 0 0 0 0 0 0 0 0 0 0 0
1 1 1 0 0 0 0 0 0 0 0 0 0 0 1 1 1 1 1 1 1 1 1 1 1 1 0 0 0 0 0 0 0 0 0 0 1 1 0 0 0 0 0 0 0 0 0 0 0
1 1 0 0 0 0 0 0 0 0 0 0 0 0 1 1 1 1 1 1 1 1 1 1 1 1 0 0 0 0 0 0 0 0 0 1 1 1 0 0 0 0 0 0 0 0 0 0 0
1 1 0 0 0 0 0 0 0 0 0 0 0 1 1 2 1 1 1 1 1 1 1 1 1 1 1 0 0 0 0 0 0 0 0 1 1 1 1 0 0 0 0 0 0 0 0 0 0
1 1 0 0 0 0 0 0 0 0 0 0 0 1 1 2 1 1 1 1 1 1 1 1 1 1 1 0 0 0 0 0 0 1 1 1 1 1 1 1 0 0 0 0 0 0 0 0 0
1 1 0 0 0 0 0 0 0 0 0 0 0 1 1 1 1 1 1 1 1 1 2 1 1 1 1 0 0 0 0 0 1 1 1 0 0 0 0 0 0 0 0 0 0 0 0 0 0
1 0 0 0 1 1 0 0 0 0 0 0 0 1 1 1 1 1 1 1 1 1 1 1 1 1 1 1 0 0 0 1 1 1 0 0 0 0 0 0 0 0 0 0 0 0 0 0 0
0 0 0 1 1 1 1 0 0 0 0 0 0 1 1 1 1 1 1 1 1 1 1 1 1 1 1 1 1 0 0 0 0 0 0 0 0 0 0 0 0 0 0 0 0 0 0 0 0
0 0 0 0 0 0 0 0 0 0 0 0 0 1 1 1 1 1 1 1 1 2 2 2 2 2 1 1 1 0 0 0 0 0 0 0 0 0 0 0 0 0 0 0 0 0 0 0 0
0 0 0 0 0 0 0 0 0 0 0 0 0 1 1 1 1 1 1 1 1 2 2 2 2 2 1 1 1 0 0 0 0 0 0 0 0 0 0 0 0 0 0 0 0 0 0 0 0
0 0 0 0 0 0 0 0 0 0 0 0 0 0 0 1 1 1 1 1 1 2 3 3 3 2 2 1 1 0 0 0 0 0 0 0 0 0 0 0 0 0 0 0 0 0 0 0 0
0 0 0 0 0 0 0 0 0 0 0 1 0 0 0 0 1 1 1 1 1 2 3 4 4 3 2 2 1 1 0 0 0 0 0 0 0 0 0 0 0 0 0 0 0 0 0 0 0
0 0 0 0 0 0 0 0 0 0 0 0 0 0 0 0 1 1 1 1 1 1 3 4 4 4 3 2 1 1 1 0 0 0 0 0 0 0 0 0 0 0 0 0 0 0 0 0 0
0 0 0 0 0 0 0 0 0 0 0 0 0 0 0 0 1 1 1 1 1 1 2 4 5 4 4 3 2 1 1 1 0 0 0 0 0 0 0 0 0 0 0 0 0 0 0 0 0
0 0 0 0 0 0 0 0 0 0 0 0 0 0 0 0 1 1 1 1 1 1 2 4 5 5 5 5 3 2 1 1 1 1 0 1 1 1 0 0 0 0 0 0 0 0 0 0 0
0 0 0 0 0 0 0 0 0 0 0 0 0 0 0 0 1 1 1 1 1 1 2 4 6 6 6 6 4 2 1 1 1 1 1 1 1 1 1 0 0 0 0 0 0 0 0 0 0
0 0 0 0 0 0 0 0 0 0 0 0 0 0 0 1 1 1 1 1 1 1 2 4 6 6 6 6 4 2 2 1 1 1 1 1 1 1 1 0 0 0 0 0 0 0 0 0 0
0 0 0 0 0 0 0 0 0 0 0 0 0 0 0 1 1 2 2 1 1 1 2 4 5 5 5 5 4 2 1 1 1 1 1 1 1 1 1 1 0 0 0 0 0 0 0 0 0
0 0 0 0 0 0 0 0 0 0 0 0 0 0 0 1 1 2 2 2 2 2 3 4 5 5 4 4 3 2 1 1 1 1 1 1 1 2 1 1 0 0 0 0 0 0 0 0 0
0 0 0 0 0 0 0 0 1 1 0 0 0 0 0 1 1 2 3 3 3 3 3 4 5 5 4 3 3 2 2 1 1 1 2 2 2 2 1 1 0 0 0 0 0 0 0 0 0
0 0 0 0 0 0 0 0 0 1 1 1 0 0 0 1 1 1 2 2 2 2 3 4 5 4 4 3 3 3 2 2 1 2 2 2 2 2 1 1 0 0 0 0 0 0 0 0 0
0 0 0 0 0 0 0 0 0 0 0 0 1 1 1 1 1 1 1 1 2 2 3 4 4 4 4 3 4 3 3 3 2 2 2 2 1 1 1 1 0 0 0 0 0 0 0 0 0
0 0 0 0 0 0 0 0 0 0 0 0 1 1 1 1 1 1 1 2 3 3 3 4 4 4 3 3 3 3 3 3 3 2 2 2 1 1 1 0 0 0 0 0 0 0 0 0 0
0 0 0 0 0 0 0 0 0 0 0 0 1 1 1 1 1 1 1 2 3 3 3 4 4 3 2 2 2 3 3 3 3 3 2 2 2 1 1 0 0 0 0 0 0 0 0 0 0
0 0 0 0 0 0 0 0 0 0 0 0 1 1 1 1 1 1 1 2 3 3 3 3 3 2 1 1 2 2 2 2 3 4 3 3 2 1 1 1 0 0 0 0 0 0 0 0 0
0 0 0 0 0 0 0 0 0 1 1 0 1 1 1 1 1 1 2 2 3 3 3 3 2 2 1 1 1 2 2 2 2 3 4 3 3 2 1 1 1 0 0 0 0 0 0 0 0
0 0 0 0 0 0 0 0 0 0 0 0 0 0 1 1 1 1 2 2 3 3 3 2 2 1 1 1 1 2 2 2 2 3 4 4 3 3 2 1 1 0 0 0 1 0 0 0 0
0 0 0 0 0 0 0 0 0 0 0 0 0 0 1 1 1 1 2 2 2 2 2 2 1 1 1 1 1 2 3 2 2 3 5 5 4 3 2 1 1 1 0 0 0 1 0 0 0
Wind_Speed
7 9 6 2 2 2 1 4 6 5 6 7 7 7 9 11 8 7 2 3 6 8 10 10 10 10 10 10 9 9 9 9 9 9 9 9 10 10 10 9 9 9 10 10 10 9 10 9 8
8 5 3 2 2 0 2 4 7 7 6 4 6 8 10 10 9 7 3 4 6 9 10 10 10 10 10 9 9 9 8 8 9 8 9 9 9 9 9 10 9 9 9 9 9 9 9 9 8
10 7 3 2 2 2 4 5 7 7 5 4 5 8 8 6 7 5 4 5 7 9 10 11 11 10 9 9 9 9 9 8 8 8 8 9 9 9 9 10 9 9 9 9 9 9 9 9 8
5 3 3 1 2 5 5 5 5 5 4 4 5 7 8 7 5 7 7 6 8 9 10 10 11 10 10 10 9 9 9 9 9 8 8 9 9 9 9 9 9 8 8 8 8 9 9 8 8
3 2 2 1 1 4 4 5 5 4 4 5 7 8 8 8 9 8 7 6 7 8 10 9 10 10 10 10 10 10 9 9 9 9 9 9 9 9 9 8 8 8 8 8 9 8 8 8 8
2 2 1 0 3 4 3 3 4 4 5 5 6 8 7 7 8 6 6 5 6 8 9 9 9 9 9 9 9 9 9 9 8 8 8 8 8 8 8 8 9 9 8 8 8 7 7 7 7
2 2 1 1 3 4 4 3 4 4 5 5 4 6 7 7 6 6 6 5 6 6 8 8 7 7 9 9 9 8 8 8 7 7 7 7 7 8 8 9 8 8 8 7 7 6 6 6 5
2 2 1 1 2 3 4 4 5 4 5 5 4 5 6 7 7 6 6 5 5 4 5 6 6 7 6 6 7 7 6 6 6 5 5 5 6 6 7 7 7 7 7 7 6 5 5 4 4
3 1 1 2 2 3 3 3 4 4 5 5 7 8 9 9 8 6 5 4 4 4 4 4 4 5 6 6 6 5 4 4 4 3 3 3 2 3 3 6 6 6 6 5 4 3 3 2 2
1 0 1 2 2 3 3 3 2 3 4 5 7 9 10 8 7 6 6 5 5 4 4 4 4 4 4 4 5 2 3 3 2 2 3 2 1 2 4 5 5 5 4 2 1 0 0 1 0
2 1 1 2 3 3 3 2 2 2 2 3 6 7 7 7 6 5 5 4 4 4 4 4 3 4 4 3 3 1 1 1 1 2 2 2 2 2 2 2 2 2 2 1 1 1 1 1 1
3 2 1 2 2 2 1 2 2 3 3 3 6 7 7 6 5 5 5 5 4 4 4 3 4 4 4 3 3 2 1 1 1 1 2 2 1 1 1 1 1 1 0 1 1 1 2 3 3
2 1 1 1 1 1 1 1 1 3 4 4 6 7 6 6 5 5 4 5 5 4 4 3 3 4 4 3 2 3 2 2 2 2 2 3 2 2 1 1 1 2 1 2 2 2 3 4 4
1 1 2 2 2 2 2 2 2 2 4 5 5 6 5 5 5 5 5 4 5 5 4 4 3 4 4 3 2 2 2 2 2 2 2 3 2 1 2 2 2 2 2 2 2 2 3 3 3
3 3 3 4 4 4 3 3 3 4 6 5 5 6 6 5 5 5 5 5 5 5 5 4 3 3 4 4 3 3 2 2 2 2 2 3 2 2 2 3 2 2 2 3 3 3 3 2 2
6 6 5 5 6 5 4 3 3 4 6 5 4 4 5 5 4 5 5 4 5 5 5 5 3 3 3 3 3 2 2 2 2 2 2 3 3 4 3 3 2 3 2 2 2 2 2 2 2
6 6 5 5 6 4 4 3 2 4 4 4 4 4 5 5 4 4 4 4 4 5 6 6 4 4 3 3 3 2 2 3 2 2 2 2 3 4 3 2 2 3 2 2 2 2 2 2 2
5 4 4 2 4 4 4 3 3 4 5 5 4 4 5 6 5 5 4 3 3 3 5 5 5 4 4 3 2 2 3 2 2 2 2 2 2 4 3 2 3 3 2 2 2 3 2 1 1
6 6 5 3 2 3 3 4 4 5 5 5 5 5 5 5 6 5 5 4 4 3 3 4 5 4 4 2 2 2 2 2 2 2 2 2 2 3 3 2 2 3 2 2 2 2 2 1 1
7 7 6 4 2 3 4 6 5 6 7 6 5 6 6 6 6 6 6 5 5 4 3 4 4 3 4 3 2 2 2 1 2 2 2 2 2 3 3 3 2 2 2 2 2 2 2 2 2
8 7 6 5 4 6 7 7 6 6 7 6 5 4 5 6 7 7 7 5 4 4 3 3 4 4 4 4 2 2 2 1 2 1 1 1 2 3 3 2 2 2 1 1 1 1 1 1 2
7 5 6 7 6 5 5 4 4 5 5 5 4 3 3 4 5 6 6 6 5 3 3 3 4 5 5 4 3 3 2 2 2 1 1 1 1 2 2 2 2 1 1 1 1 1 1 1 1
6 6 7 8 8 9 9 6 3 4 5 6 5 4 3 3 5 6 6 5 5 4 3 3 4 4 4 4 4 2 2 2 2 2 2 1 1 1 1 1 1 1 1 1 1 1 1 1 1
6 8 8 8 6 8 9 5 1 1 3 5 5 5 4 4 4 6 6 5 4 4 3 3 3 4 3 3 4 3 2 2 2 2 2 1 1 1 1 1 0 0 0 1 1 0 0 0 1
6 5 4 4 5 5 2 2 1 4 5 4 4 4 4 4 5 5 6 6 5 5 4 3 3 4 3 3 3 3 3 3 3 2 2 2 1 1 1 1 0 0 0 1 0 0 0 1 0
7 6 4 4 3 3 2 2 3 6 5 5 4 4 4 4 4 5 6 6 5 5 4 4 4 4 4 3 3 2 3 2 1 2 2 2 1 2 2 2 1 1 1 1 0 0 0 0 1
6 6 6 7 9 6 3 1 3 5 5 4 4 4 4 4 4 5 5 6 6 5 5 4 4 4 3 3 3 3 2 2 2 2 2 1 1 1 2 2 2 1 2 1 1 0 1 1 1
7 6 4 4 4 4 3 3 1 4 4 3 4 4 4 4 4 4 5 4 5 5 4 4 4 4 3 3 2 2 2 2 2 2 2 1 1 2 2 2 2 2 2 2 1 0 1 1 1
6 7 5 4 5 4 3 1 3 3 4 3 2 4 4 4 4 4 4 4 4 4 4 4 3 3 3 3 3 2 2 2 2 1 2 2 1 1 2 2 2 2 2 2 2 2 1 1 2
6 7 6 5 6 5 4 1 2 4 4 2 2 3 4 4 4 4 4 4 4 4 4 4 3 3 2 2 2 2 2 2 2 2 2 2 1 1 1 1 1 1 2 2 2 2 2 2 2
Wind_Direction
240 235 237 251 261 244 35 75 81 69 56 47 45 54 60 51 47 83 126 82 91 97 101 96 85 80 75 75 74 73 72 69 68 71 73 73 74 73 69 67 67 65 65 65 63 61 59 56 53
263 251 261 244 253 253 69 77 78 69 73 62 57 58 68 65 69 91 100 78 92 95 94 91 88 82 76 73 72 73 74 75 74 75 78 77 75 75 70 68 68 66 66 66 63 62 60 56 52
261 262 259 256 309 35 77 75 80 77 70 60 62 59 56 62 71 93 107 98 90 90 92 92 88 83 79 74 73 75 75 79 79 77 80 79 76 75 72 70 67 65 67 68 65 61 59 55 50
253 263 250 269 15 52 79 91 95 92 77 67 74 77 73 61 73 103 111 102 96 98 99 99 92 86 81 76 73 74 75 78 81 78 79 78 77 75 73 71 69 67 67 68 68 66 62 55 50
247 256 244 252 64 74 59 69 81 76 73 69 73 84 85 80 89 101 106 101 102 105 108 107 98 93 87 81 76 74 77 78 79 79 77 76 76 75 73 72 71 70 70 70 68 66 62 56 50
277 260 256 99 89 85 76 64 84 91 86 79 88 96 89 98 101 105 105 105 107 110 110 111 109 104 98 89 82 79 79 80 82 84 81 78 77 76 74 75 75 71 70 68 66 65 63 56 48
270 284 275 78 90 83 78 59 64 71 77 66 65 94 108 105 106 110 102 92 92 104 114 123 129 121 109 99 90 86 87 85 86 87 88 86 84 82 79 76 73 71 69 70 69 67 66 58 47
282 291 299 38 83 79 68 69 71 68 72 68 61 88 117 124 123 118 110 105 101 104 113 125 134 135 134 120 105 99 100 100 100 100 101 102 100 93 89 84 79 77 73 72 76 75 72 63 48
272 275 357 35 65 95 94 81 73 77 83 77 74 84 109 123 126 120 116 115 112 108 115 118 126 128 131 129 119 123 122 126 126 126 128 134 142 127 104 90 94 88 82 78 79 84 82 74 53
201 36 35 56 65 98 98 89 88 98 95 94 92 97 112 124 133 136 136 136 135 131 126 119 120 120 117 113 123 144 138 140 162 156 147 165 127 100 100 108 112 109 102 94 97 217 221 233 167
164 153 53 57 61 80 100 101 99 96 81 96 114 121 126 133 137 135 131 124 124 121 116 117 120 111 108 106 118 103 99 117 138 106 107 102 96 105 107 126 138 157 169 192 192 239 256 40 61
163 160 133 87 75 81 90 100 78 67 79 90 108 122 132 139 139 133 121 123 125 122 117 109 118 118 111 102 106 111 100 95 77 68 82 72 74 81 100 106 130 125 99 69 40 38 50 39 43
166 163 133 117 158 149 140 129 104 114 114 120 126 134 141 144 138 128 130 138 131 121 120 125 123 112 108 105 106 101 86 71 76 53 67 76 58 55 66 77 56 58 51 42 21 40 47 37 33
180 170 188 194 193 185 206 199 195 185 158 152 146 146 149 147 145 139 143 142 132 136 139 124 120 109 109 111 107 101 102 84 65 56 50 75 74 58 57 60 58 46 35 32 39 47 50 48 36
214 224 222 204 207 199 215 232 203 189 173 164 162 158 153 160 153 152 153 152 148 147 137 132 134 117 111 109 109 102 99 96 70 56 44 58 68 57 55 55 53 45 38 37 33 37 36 45 38
229 231 229 207 197 187 214 244 189 167 168 162 166 156 152 164 170 162 154 144 147 145 139 136 137 118 101 101 99 92 91 90 82 68 47 42 57 62 55 59 47 36 38 41 41 42 34 31 31
237 238 232 202 191 195 210 244 178 169 168 166 172 164 164 169 175 156 149 148 152 149 144 145 145 132 118 107 105 98 91 87 82 69 51 35 53 66 60 52 49 42 39 39 34 44 45 31 25
257 262 264 227 181 205 214 233 206 189 193 194 187 182 179 178 177 156 147 143 144 145 148 147 138 130 120 104 96 86 83 79 77 74 64 39 44 70 72 58 49 46 49 42 32 42 31 36 19
274 281 288 282 221 244 249 245 221 199 204 202 195 196 191 191 169 158 154 152 140 140 141 137 148 150 133 116 104 96 90 92 81 85 76 55 46 68 82 68 53 48 46 40 33 39 21 3 360
260 269 272 260 240 263 260 263 238 201 201 205 206 200 194 183 164 156 157 157 153 157 157 152 144 136 125 115 118 120 114 104 95 83 73 54 50 53 67 71 73 69 60 39 24 37 21 346 1
262 266 280 292 282 261 262 260 236 205 195 191 207 207 195 178 168 160 163 158 154 161 158 151 143 129 119 124 115 111 102 97 89 84 70 52 61 61 57 60 69 69 70 65 40 80 67 345 339
269 279 281 280 277 266 251 277 258 202 181 174 189 205 183 159 154 151 157 158 154 157 151 154 141 137 136 130 133 141 149 145 138 138 134 111 99 88 73 63 71 71 79 72 356 55 19 41 340
277 283 274 270 271 276 263 257 250 171 169 173 174 180 170 156 152 147 145 144 148 147 145 150 134 127 129 136 137 153 155 143 133 131 135 137 110 101 99 80 67 62 78 76 59 48 13 9 360
274 276 267 256 257 258 256 244 254 168 156 156 162 167 171 163 147 144 143 138 138 131 129 136 130 120 120 131 143 157 145 134 127 139 141 151 144 139 117 102 113 107 88 67 82 99 357 346 337
252 264 264 233 219 240 248 219 191 86 79 95 136 155 158 156 147 146 145 144 140 138 141 141 130 127 132 148 148 157 151 154 161 162 170 166 153 164 184 144 164 125 107 94 77 117 214 247 281
247 242 257 282 281 296 278 215 119 104 87 83 108 135 145 147 146 151 152 148 147 147 154 158 159 155 157 169 171 158 158 165 168 154 159 179 179 172 171 171 183 148 96 58 31 278 241 222 247
259 251 262 283 290 287 261 194 124 115 112 113 116 123 140 155 148 147 145 149 150 154 159 165 166 162 161 174 174 175 176 173 172 175 180 178 196 188 176 186 188 170 148 154 101 7 321 338 287
246 272 274 260 276 279 267 261 188 141 130 134 131 134 140 143 142 139 140 148 150 151 154 160 162 168 164 176 182 185 188 179 173 177 183 183 210 207 194 203 196 184 169 162 141 151 337 327 298
227 241 253 274 270 279 290 354 36 109 113 114 130 132 134 142 148 143 142 144 141 144 154 162 165 166 167 178 185 186 174 173 181 181 190 194 204 211 209 219 201 185 179 170 167 187 205 242 266
253 254 247 248 265 278 284 276 107 103 100 103 106 114 123 125 128 135 141 137 140 156 165 167 167 165 170 175 176 179 176 179 184 202 214 198 190 203 217 222 214 209 200 187 187 205 213 227 253